Home > Weather > Forchheim > Past weeks

Flag for Germany Weather for the Past 2 Weeks in Forchheim, Bavaria, Germany

Now
46 °F

Sunny.


Feels Like: 42 °F
Forecast: 33 / 49 °F
Wind: 8 mph from Southeast

Location: Nuernberg

Current Time: Feb 6, 2016 at 12:55:28 PM

Latest Report: Feb 6, 2016 at 12:20 PM


Visibility: 10 mi

Pressure: 30.07 "Hg

Humidity: 71%

Dew point: 37 °F

Location of ForchheimLocation

Historic Weather in Forchheim — Graph

°F

Forchheim Temperature Yesterday

Maximum temperature yesterday: 45 °F (at 2:50 PM)
Minimum temperature yesterday: 36 °F (at 12:50 AM)
Average temperature yesterday: 40 °F

High & Low Weather Summary for the Past Weeks

 TemperatureHumidityPressure
High57 °F (Jan 27, 2:20 PM)100% (Jan 23, 7:50 AM)30.60 "Hg (Jan 23, 7:50 AM)
Low19 °F (Jan 22, 11:20 AM)51% (Jan 27, 2:20 PM)29.83 "Hg (Jan 30, 5:20 PM)
Average41 °F84%30.22 "Hg
* Reported Jan 22 11:20 AM — Feb 6 11:50 AM, Forchheim, Weather by CustomWeather, © 2016

Note: Actual official high and low records may vary slightly from our data, if they occured in-between our weather recording intervals... More about our weather records

Advertising

Forchheim Weather History for the Previous 24 Hours

 ConditionsComfort  
Time TempWeatherWind HumidityBarometerVisibility
11:50 AM
Sat, Feb 6
45 °FSunny.10 mph76%30.07 "Hg10 mi
11:20 AM43 °FPassing clouds.8 mph81%30.09 "HgN/A
10:50 AM41 °FPassing clouds.9 mph81%30.09 "HgN/A
10:20 AM39 °FPassing clouds.8 mph87%30.09 "HgN/A
9:50 AM39 °FSunny.7 mph87%30.09 "Hg10 mi
9:20 AM37 °FPassing clouds.6 mph93%30.09 "HgN/A
8:50 AM36 °FSunny.6 mph93%30.09 "Hg10 mi
8:20 AM36 °FSunny.7 mph93%30.09 "Hg10 mi
7:50 AM34 °FSunny.6 mph93%30.09 "Hg10 mi
7:20 AM34 °FClear.3 mph93%30.12 "Hg10 mi
6:50 AM36 °FClear.8 mph93%30.09 "Hg10 mi
6:20 AM34 °FClear.7 mph100%30.12 "Hg10 mi
5:50 AM34 °FClear.7 mph100%30.12 "Hg10 mi
5:20 AM34 °FClear.6 mph100%30.15 "Hg10 mi
4:50 AM36 °FClear.6 mph93%30.15 "Hg10 mi
4:20 AM34 °FFog.6 mph100%30.15 "Hg6 mi
3:50 AM34 °FFog.5 mph100%30.15 "HgN/A
3:20 AM36 °FPassing clouds.5 mph93%30.15 "HgN/A
2:50 AM36 °FPassing clouds.6 mph100%30.18 "HgN/A
2:20 AM37 °FPassing clouds.6 mph93%30.18 "HgN/A
1:20 AM36 °FPassing clouds.6 mph100%30.21 "HgN/A
12:50 AM37 °FPassing clouds.5 mph93%30.21 "HgN/A
12:20 AM37 °FPassing clouds.6 mph93%30.21 "HgN/A
11:50 PM
Fri, Feb 5
37 °FPassing clouds.6 mph93%30.21 "HgN/A
11:20 PM39 °FPassing clouds.5 mph93%30.24 "HgN/A
10:50 PM39 °FPassing clouds.5 mph87%30.24 "HgN/A
10:20 PM41 °FPassing clouds.6 mph87%30.24 "HgN/A
9:50 PM43 °FPassing clouds.3 mph81%30.24 "HgN/A
9:20 PM45 °FPassing clouds.5 mph81%30.24 "HgN/A
8:50 PM45 °FPassing clouds.5 mph81%30.27 "HgN/A
8:20 PM45 °FPassing clouds.3 mph81%30.27 "HgN/A
7:50 PM45 °FPassing clouds.3 mph81%30.27 "HgN/A
7:20 PM45 °FPassing clouds.3 mph81%30.27 "HgN/A
6:50 PM45 °FPassing clouds.5 mph81%30.27 "HgN/A
6:20 PM45 °FPassing clouds.5 mph81%30.27 "HgN/A
5:50 PM45 °FPassing clouds.3 mph81%30.27 "HgN/A
5:20 PM45 °FPassing clouds.6 mph81%30.27 "HgN/A
4:50 PM45 °FPartly sunny.6 mph81%30.27 "HgN/A
4:20 PM45 °FPartly sunny.7 mph81%30.27 "HgN/A
3:50 PM45 °FPartly sunny.6 mph81%30.27 "HgN/A
3:20 PM45 °FPartly sunny.5 mph76%30.27 "HgN/A
2:50 PM45 °FPartly sunny.6 mph76%30.27 "HgN/A
2:20 PM43 °FBroken clouds.6 mph81%30.27 "HgN/A
1:50 PM43 °FBroken clouds.7 mph81%30.30 "HgN/A
1:20 PM41 °FDrizzle. Partly sunny.6 mph87%30.33 "HgN/A
12:50 PM41 °FDrizzle. Partly sunny.7 mph81%30.33 "HgN/A
12:20 PM41 °FPartly sunny.5 mph81%30.33 "HgN/A
Weather by CustomWeather, © 2016

See weather overviewHow to use our weather pages